Hourly Data Report for July 10, 2021

GORE BAY CLIMATE
ONTARIO
Current Station Operator: ECCC - MSC

45°53'00.000" N
82°34'00.000" W
188.60 m
6092920
71956
TZE

Download Data

Hourly Data (July 2021)
Hourly Data Report for July 10, 2021
TIME
LST
Temp Definition
°C
Dew Point Definition
°C
Rel Hum Definition
%
Precip. Amount Definition
mm

Wind Dir Definition
10's deg

Wind Spd Definition
km/h
Visibility Definition
km
Stn Press Definition
kPa
Hmdx Definition


Wind Chill Definition


Weather Definition


00:00 16.5 11.1 70 0.0 28 12   99.50     LegendNANA
01:00 15.9 11.6 76 0.0 29 12   99.48     LegendNANA
02:00 15.6 11.5 77 0.0 30 14   99.47     LegendNANA
03:00 15.0 11.9 82 0.0 30 7   99.47     LegendNANA
04:00 14.0 11.9 87 0.0 31 4   99.47     LegendNANA
05:00 11.4 10.0 91 0.0 0 1   99.47     LegendNANA
06:00 13.3 11.2 87 0.0 0 1   99.45     LegendNANA
07:00 16.7 13.0 79 0.0 27 8   99.58     LegendNANA
08:00 18.8 11.8 64 0.0 30 11   99.64     LegendNANA
09:00 19.4 11.8 61 0.0 33 11   99.57     LegendNANA
10:00 20.9 9.9 49 0.0 30 5   99.57     LegendNANA
11:00 22.8 8.4 40 0.0 27 12   99.64     LegendNANA
12:00 24.2 6.4 32 0.0 27 10   99.58     LegendNANA
13:00 25.0 4.8 27 0.0 27 15   99.56     LegendNANA
14:00 25.1 3.7 25 0.0 23 11   99.50     LegendNANA
15:00 25.2 6.9 31 0.0 23 11   99.46 25   LegendNANA
16:00 25.1 6.2 30 0.0 25 12   99.44 25   LegendNANA
17:00 25.4 7.2 31 0.0 27 11   99.43 25   LegendNANA
18:00 24.5 6.5 31 0.0 26 12   99.42     LegendNANA
19:00 23.1 7.6 37 0.0 25 13   99.43     LegendNANA
20:00 17.8 9.1 57 0.0 20 11   99.44     LegendNANA
21:00 17.0 9.5 61 0.0 21 7   99.48     LegendNANA
22:00 13.8 9.5 75 0.0 14 5   99.51     LegendNANA
23:00 15.4 10.4 72 0.0 22 9   99.53     LegendNANA

Notes on Data Quality.

Legend

  • E = Estimated
  • M = Missing
  • NA = Not Available*
  • [empty] = Indicates an unobserved value
Date modified: